Погода в Комарове

Россия / Пермский край     57°18′23″N   55°39′25″E
темп.,
°C
ветер,
м/с
пор.,
м/с
влажн.,
%
обл.,
%
осадки,
мм/ч
давл.,
гПа
погр.,
м
21 апреля, ср
ср2123:00+3всв00532 0.0 103310
02:00+1вюв11570 0.0 103310
05:00+1ю11580 0.0 103310
08:00+4юв12510 0.0 1033110
11:00+9ю333697 0.0 1032886
14:00+11ю4531100 0.0 10311265
17:00+12ююв5632100 0.0 10301241
20:00+8ююв3650100 0.0 1029136
22 апреля, чт
чт2223:00+6вюв3756100 0.0 1029125
02:00+6ююв41259100 0.0 1028354
05:00+6ю61256100 0.0 1029743
08:00+5ю71478100 0.1 10291015
11:00+6ю71173100 0.1 10291105
14:00+4ю61095100 0.9 1030934
17:00+3ю51296100 2.3 1030728
20:00+4ю41097100 0.3 1030859
23 апреля, пт
пт2323:00+4ю3992100 0.4 1030778
02:00+4ю4896100 0.1 1029618
05:00+4ю3698100 0.1 1029694
08:00+3ю3797100 0.1 1030487
11:00+3ююв3697100 0.1 1030418
14:00+5ю3484100 0.0 1030649
17:00+6ююв3378100 0.1 1030728
20:00+5ююв2384100 0.0 1030136
24 апреля, сб
сб2423:00+4в2390100 0.0 102970
02:00+4всв3691100 0.0 1028207
05:00+3всв41094100 0.0 1026309
08:00+5в51288100 0.0 1024410
11:00+5в4993100 0.8 1022334
14:00+5в4995100 0.8 1020517
17:00+6вюв4895100 1.8 1018414
20:00+6вюв4893100 0.8 1017444
25 апреля, вс
вс2523:00+5в51192100 1.4 1015386
02:00+6в51085100 0.0 1013459
05:00+4в4893100 0.5 1012300
08:00+5юв4891100 0.1 1012365
11:00+5юв3686100 0.1 1011457
14:00+7юв4582100 0.1 1011946
17:00+8ююв4681100 0.4 1010892
20:00+4юз5797100 1.9 1011764